Probability
0 0 0 0 0 0 0 0 0 0 0 0 0 0 0 0 0 0 0 0 0 0 42 68 77 45 45 55 71 84 94 100 100 100 100 100 100 100 100 100 100 100 97 94 100 100 100 100 100
0 0 0 0 0 0 0 0 0 0 0 0 0 0 0 10 0 0 0 0 0 0 45 39 74 52 45 48 65 71 90 100 100 100 100 100 100 100 100 100 100 100 90 84 87 94 97 100 100
0 0 0 0 0 0 0 0 0 0 0 0 0 0 6 10 0 0 0 0 0 10 16 52 81 61 61 55 71 74 87 97 100 100 100 100 100 100 100 100 100 97 90 94 97 100 97 100 100
0 0 0 0 0 0 0 0 0 0 0 0 0 0 0 6 0 0 0 0 0 6 13 68 90 74 71 68 74 74 84 97 97 100 100 100 97 90 81 74 77 81 81 90 97 97 97 97 97
0 0 0 0 0 0 0 0 0 0 0 0 0 0 0 23 0 0 0 0 0 0 10 84 94 84 71 74 77 68 84 97 97 100 100 97 94 68 48 42 55 77 74 84 90 100 100 94 94
0 0 0 0 0 0 0 0 0 0 0 0 0 0 6 6 0 0 0 0 0 0 32 90 97 94 87 74 74 74 90 97 100 100 100 100 100 94 87 74 87 87 94 87 84 94 100 100 100
0 0 0 0 0 0 0 0 0 0 0 0 0 0 10 3 0 0 0 0 3 6 42 94 97 90 90 90 87 81 94 97 100 100 100 100 100 100 100 100 100 100 94 94 87 74 74 100 100
0 0 0 0 0 0 0 0 0 0 0 0 0 0 6 6 0 0 0 0 0 10 32 45 74 84 90 90 90 94 90 94 97 100 100 100 100 100 100 100 100 100 100 100 100 97 97 100 100
0 0 0 0 0 0 0 0 0 0 0 0 0 0 0 10 0 0 0 0 0 3 35 19 16 6 23 74 94 97 100 97 97 97 100 100 100 94 100 100 100 100 100 100 100 100 100 100 100
0 0 0 0 0 0 0 0 0 0 0 0 0 0 26 10 0 0 0 0 0 0 26 42 3 6 6 68 77 94 97 100 90 94 97 100 61 16 74 39 100 100 100 97 100 100 100 100 100
0 0 0 0 0 0 0 0 0 0 0 0 0 6 68 13 10 0 0 0 0 0 6 48 35 3 10 23 6 42 84 94 87 84 65 23 10 6 19 13 23 42 58 68 90 94 97 97 94
0 0 0 0 0 0 0 0 3 3 0 0 0 10 68 58 35 13 0 0 0 3 3 16 48 23 23 10 6 23 48 42 55 29 23 10 6 3 3 6 3 3 3 6 39 32 39 29 29
0 0 0 0 0 0 0 0 3 3 0 0 0 23 77 81 71 71 55 39 23 13 10 13 42 29 19 13 6 19 42 58 45 39 29 13 13 10 10 6 0 0 0 0 3 6 6 3 3
0 0 0 0 0 0 0 3 3 0 0 0 0 10 52 74 87 100 100 97 87 68 45 39 35 23 16 16 3 23 29 39 29 23 26 23 23 16 0 0 0 0 0 0 0 0 0 0 0
0 0 0 0 0 0 0 0 3 3 0 0 0 0 26 45 74 94 100 100 100 87 65 61 52 23 10 10 6 10 19 26 19 19 16 19 16 13 10 3 3 0 0 0 0 0 0 0 0
0 0 0 0 0 0 0 0 0 3 0 0 0 0 6 13 42 61 84 90 90 84 84 74 94 48 23 6 10 13 23 19 19 13 10 6 13 13 6 6 6 0 0 0 0 0 0 0 0
0 0 0 0 0 0 0 0 0 0 0 0 0 0 0 13 16 29 48 77 81 77 81 94 100 90 42 26 16 26 16 16 10 3 6 6 13 16 6 3 3 0 0 0 0 0 0 0 0
0 0 0 0 0 0 0 0 0 0 3 0 0 0 0 0 3 16 29 42 55 61 65 84 90 90 81 52 23 13 10 13 16 16 16 16 16 23 6 0 3 0 0 3 0 0 0 0 0
0 0 0 0 0 0 0 0 6 6 13 10 3 3 0 0 3 19 23 32 32 35 39 55 81 74 68 48 26 19 23 16 16 6 16 19 19 19 6 3 0 0 0 3 0 0 0 0 0
0 0 0 0 0 0 0 0 10 6 19 29 23 26 23 19 10 19 19 26 23 29 29 35 45 55 52 35 29 16 16 6 6 0 3 3 3 3 0 0 0 3 0 0 0 0 0 0 0
0 0 0 0 0 0 0 0 0 6 10 13 32 29 29 19 23 16 16 19 39 45 35 39 39 32 29 23 10 3 3 0 0 0 0 0 0 0 0 0 0 0 0 0 0 0 0 0 0
0 0 0 0 0 0 0 0 0 0 3 3 6 16 10 10 13 10 13 26 42 39 32 35 23 10 6 10 6 6 3 6 0 0 0 0 0 0 0 0 0 0 0 0 0 0 0 0 0
0 0 0 0 0 0 0 0 0 0 0 0 0 0 3 3 3 0 3 19 19 23 19 10 3 3 0 3 6 6 0 0 0 0 0 0 0 0 0 0 0 0 0 0 0 0 0 0 0
0 0 0 0 0 0 0 0 0 0 0 0 0 3 3 0 0 0 0 3 3 3 3 3 3 0 0 0 0 0 0 0 0 0 0 0 0 0 0 0 0 0 0 0 0 0 0 0 0
0 0 0 0 0 0 0 0 0 0 0 0 0 0 0 0 0 0 0 0 0 0 0 0 0 0 0 0 0 0 0 0 0 0 0 0 0 0 0 0 0 0 0 0 0 0 0 0 0
0 0 0 0 0 0 0 0 0 0 0 0 0 0 0 0 0 0 0 0 0 0 0 0 0 0 0 0 0 0 0 0 0 0 0 0 0 0 0 0 0 0 0 0 0 0 0 0 0
0 0 0 0 0 0 0 0 0 0 0 0 0 0 0 0 0 0 0 0 0 0 0 0 0 0 0 0 0 0 0 0 0 0 0 0 0 0 0 0 0 0 0 0 0 0 0 0 0
0 0 0 0 0 0 0 0 0 0 0 0 0 0 0 0 0 0 0 0 0 0 0 0 0 0 0 0 0 0 0 0 0 0 0 0 0 0 0 0 0 0 0 0 0 0 0 0 0
0 0 0 0 0 0 0 0 0 0 0 0 0 0 0 0 0 0 0 0 0 0 0 0 0 0 0 0 0 0 0 0 0 0 0 0 0 0 0 0 0 0 0 0 0 0 0 0 0
0 0 0 0 0 0 0 0 0 0 0 0 0 0 0 0 0 0 0 0 0 0 0 0 0 0 0 0 0 0 0 0 0 0 0 0 0 0 0 0 0 0 0 0 0 0 0 0 0
Height
5909 5910 5911 5913 5914 5914 5913 5913 5913 5914 5914 5915 5916 5916 5917 5918 5919 5921 5919 5918 5918 5918 5918 5917 5917 5916 5916 5915 5915 5915 5915 5915 5915 5915 5915 5914 5914 5913 5913 5912 5911 5911 5910 5909 5908 5908 5907 5906 5905
5910 5911 5913 5915 5915 5915 5915 5914 5914 5914 5915 5917 5917 5918 5918 5919 5920 5920 5920 5919 5919 5919 5919 5918 5918 5917 5917 5916 5916 5915 5915 5916 5915 5915 5915 5915 5914 5914 5913 5912 5912 5911 5910 5909 5908 5907 5906 5905 5905
5910 5912 5915 5916 5916 5916 5916 5915 5914 5914 5915 5916 5917 5919 5919 5920 5921 5922 5922 5921 5920 5921 5921 5920 5919 5919 5918 5917 5916 5916 5916 5916 5916 5915 5915 5915 5914 5914 5913 5913 5912 5911 5910 5909 5908 5907 5906 5905 5904
5910 5912 5915 5917 5917 5917 5917 5916 5915 5915 5915 5916 5917 5918 5919 5921 5921 5922 5922 5922 5922 5922 5922 5921 5920 5919 5919 5918 5917 5916 5916 5916 5916 5915 5915 5915 5915 5914 5914 5913 5912 5911 5909 5908 5907 5906 5905 5904 5903
5909 5911 5913 5915 5916 5916 5916 5916 5915 5915 5915 5915 5916 5917 5918 5920 5920 5921 5922 5922 5923 5923 5923 5922 5921 5920 5919 5918 5917 5916 5916 5915 5915 5915 5915 5915 5914 5914 5913 5913 5912 5910 5909 5908 5907 5905 5904 5903 5902
5909 5910 5911 5912 5914 5915 5916 5916 5916 5915 5915 5915 5916 5917 5918 5919 5920 5920 5921 5922 5923 5923 5922 5921 5920 5919 5919 5918 5917 5916 5916 5915 5915 5915 5915 5914 5914 5913 5912 5912 5911 5910 5909 5907 5906 5904 5903 5902 5902
5909 5909 5909 5909 5910 5913 5915 5915 5915 5915 5915 5915 5916 5917 5918 5919 5919 5920 5920 5921 5921 5921 5921 5920 5919 5918 5918 5917 5917 5916 5916 5915 5915 5915 5915 5914 5913 5912 5912 5911 5910 5909 5908 5906 5905 5903 5902 5901 5900
5907 5909 5908 5907 5907 5910 5913 5913 5914 5915 5915 5915 5915 5916 5917 5918 5918 5919 5919 5919 5919 5919 5919 5918 5918 5917 5917 5916 5916 5916 5915 5915 5915 5914 5914 5914 5913 5912 5911 5910 5909 5908 5907 5905 5904 5902 5900 5899 5898
5906 5908 5906 5906 5906 5908 5910 5912 5914 5915 5915 5915 5915 5915 5916 5916 5917 5917 5918 5918 5918 5917 5917 5916 5916 5916 5915 5915 5914 5914 5914 5914 5914 5913 5913 5912 5911 5910 5909 5909 5908 5907 5905 5904 5902 5900 5898 5897 5896
5905 5906 5905 5904 5904 5905 5906 5909 5911 5913 5914 5914 5914 5914 5914 5914 5915 5915 5915 5916 5916 5915 5915 5914 5914 5914 5913 5913 5913 5912 5912 5912 5911 5911 5910 5909 5909 5908 5907 5907 5906 5905 5904 5902 5900 5899 5896 5895 5894
5903 5903 5902 5901 5901 5902 5904 5906 5909 5911 5913 5913 5913 5912 5911 5911 5912 5913 5913 5913 5913 5913 5912 5912 5912 5911 5911 5911 5910 5910 5910 5909 5909 5908 5907 5907 5906 5905 5905 5904 5904 5902 5901 5900 5898 5896 5894 5893 5891
5899 5900 5899 5898 5898 5900 5902 5904 5906 5908 5910 5911 5911 5910 5910 5909 5909 5910 5910 5911 5911 5910 5910 5909 5909 5909 5908 5908 5908 5907 5907 5907 5906 5905 5904 5903 5903 5902 5902 5902 5901 5900 5899 5897 5896 5894 5892 5890 5888
5895 5895 5895 5895 5896 5899 5900 5901 5902 5904 5905 5907 5907 5908 5908 5907 5907 5907 5908 5908 5907 5907 5907 5907 5906 5906 5905 5905 5904 5904 5903 5903 5902 5902 5901 5900 5899 5899 5899 5898 5897 5897 5896 5894 5893 5891 5889 5887 5885
5890 5892 5893 5894 5894 5895 5896 5897 5898 5899 5900 5901 5903 5904 5904 5904 5904 5903 5903 5904 5904 5904 5904 5903 5903 5902 5902 5901 5900 5899 5898 5898 5897 5897 5897 5896 5895 5895 5894 5894 5893 5892 5891 5890 5889 5887 5885 5883 5881
5885 5889 5890 5890 5889 5889 5890 5892 5893 5894 5895 5896 5897 5898 5900 5900 5900 5900 5899 5899 5899 5900 5900 5899 5899 5898 5897 5896 5895 5894 5893 5892 5891 5891 5891 5890 5890 5890 5889 5888 5887 5887 5886 5885 5884 5882 5881 5878 5877
5878 5881 5883 5883 5883 5883 5885 5886 5888 5888 5889 5890 5891 5892 5894 5895 5896 5896 5895 5894 5894 5894 5894 5894 5893 5893 5891 5890 5889 5888 5887 5886 5885 5884 5884 5884 5884 5883 5883 5882 5881 5881 5880 5879 5878 5876 5875 5873 5871
5870 5873 5875 5876 5876 5877 5878 5879 5881 5881 5882 5884 5885 5886 5887 5888 5889 5889 5889 5888 5888 5888 5887 5887 5887 5886 5884 5883 5882 5882 5880 5879 5878 5877 5876 5876 5877 5876 5876 5875 5874 5874 5873 5872 5871 5869 5868 5867 5865
5862 5864 5866 5869 5869 5870 5871 5872 5874 5875 5876 5877 5878 5879 5880 5881 5881 5881 5881 5881 5880 5880 5880 5879 5878 5877 5876 5874 5874 5873 5872 5871 5869 5868 5868 5868 5868 5868 5868 5867 5867 5866 5865 5864 5862 5862 5861 5859 5857
5858 5859 5861 5863 5864 5865 5866 5867 5867 5868 5869 5870 5871 5871 5872 5872 5872 5871 5871 5872 5872 5872 5871 5871 5869 5868 5867 5866 5865 5863 5862 5861 5859 5858 5857 5858 5859 5859 5859 5859 5858 5858 5857 5856 5854 5853 5852 5851 5848
5854 5855 5856 5857 5858 5859 5860 5861 5860 5860 5861 5862 5862 5863 5863 5863 5862 5861 5861 5861 5862 5862 5862 5861 5860 5859 5857 5856 5854 5853 5850 5849 5849 5848 5847 5848 5849 5849 5849 5850 5850 5849 5849 5848 5846 5844 5843 5842 5839
5849 5850 5851 5852 5853 5853 5854 5855 5854 5853 5853 5853 5854 5854 5855 5855 5854 5853 5852 5849 5849 5849 5850 5850 5850 5849 5847 5845 5843 5842 5839 5837 5836 5836 5837 5838 5839 5839 5840 5841 5841 5841 5841 5840 5838 5836 5834 5833 5831
5844 5845 5845 5846 5847 5847 5848 5847 5848 5846 5845 5845 5845 5845 5846 5846 5846 5845 5843 5841 5839 5839 5839 5839 5839 5837 5836 5834 5830 5828 5827 5826 5826 5826 5827 5828 5829 5831 5832 5832 5833 5832 5832 5831 5829 5827 5825 5824 5822
5839 5839 5839 5839 5839 5840 5839 5839 5839 5839 5838 5837 5836 5836 5836 5836 5836 5836 5835 5833 5832 5831 5831 5829 5829 5827 5826 5823 5820 5816 5813 5813 5815 5817 5818 5820 5821 5822 5823 5824 5824 5823 5823 5821 5820 5818 5816 5813 5812
5834 5834 5833 5833 5832 5832 5831 5831 5830 5830 5830 5829 5827 5826 5825 5825 5825 5824 5824 5823 5822 5821 5820 5819 5818 5816 5814 5811 5809 5806 5804 5804 5806 5808 5809 5811 5813 5814 5815 5815 5815 5814 5814 5812 5811 5809 5806 5804 5801
5830 5830 5829 5828 5827 5827 5826 5824 5825 5823 5822 5821 5819 5818 5816 5815 5813 5812 5812 5811 5810 5809 5808 5807 5805 5804 5801 5799 5798 5797 5795 5795 5797 5798 5800 5802 5804 5805 5806 5806 5805 5805 5804 5803 5801 5799 5797 5795 5792
5826 5826 5826 5824 5823 5823 5821 5820 5820 5817 5815 5813 5812 5810 5807 5805 5802 5800 5798 5797 5796 5795 5794 5792 5791 5790 5789 5787 5786 5786 5786 5787 5788 5790 5792 5794 5795 5796 5796 5796 5796 5795 5794 5793 5792 5790 5788 5786 5784
5823 5822 5821 5820 5819 5818 5817 5816 5815 5811 5809 5807 5804 5802 5799 5795 5791 5788 5785 5782 5780 5779 5778 5777 5776 5776 5775 5775 5775 5775 5776 5778 5780 5782 5783 5785 5786 5787 5787 5786 5786 5785 5785 5784 5783 5781 5780 5778 5777
5820 5819 5818 5816 5814 5813 5813 5812 5809 5805 5802 5800 5796 5792 5788 5784 5780 5775 5770 5767 5764 5763 5762 5761 5762 5763 5763 5763 5764 5765 5766 5768 5770 5772 5774 5776 5777 5777 5777 5777 5777 5776 5775 5775 5774 5773 5772 5771 5770
5817 5816 5813 5811 5809 5806 5805 5808 5802 5798 5795 5791 5787 5782 5777 5772 5767 5762 5757 5752 5749 5747 5746 5746 5747 5749 5751 5751 5753 5755 5757 5758 5761 5763 5765 5766 5767 5768 5768 5768 5768 5767 5767 5766 5765 5765 5764 5763 5762
5811 5810 5808 5807 5804 5801 5797 5800 5794 5790 5786 5782 5779 5773 5767 5761 5755 5749 5743 5738 5735 5733 5732 5732 5734 5737 5739 5741 5743 5745 5747 5749 5752 5754 5755 5757 5758 5759 5759 5759 5759 5758 5758 5757 5757 5756 5756 5755 5754
Wind_Speed
12 11 9 6 4 5 8 8 9 12 13 12 11 11 11 10 10 10 11 11 11 11 11 11 11 11 11 12 12 12 12 11 12 12 12 12 12 12 13 14 15 16 16 16 16 15 13 11 10
12 10 7 6 4 5 6 5 5 6 9 9 9 10 10 10 9 9 8 9 9 8 7 8 9 9 10 12 12 12 11 11 10 9 9 9 10 10 10 11 12 14 14 14 14 14 13 11 9
12 10 7 5 3 3 3 2 3 3 4 5 6 7 7 7 7 6 6 6 7 6 5 6 8 8 9 9 10 10 9 9 8 7 7 8 8 8 8 9 10 12 13 13 13 12 12 10 8
13 11 8 5 3 2 2 3 3 2 1 1 2 3 3 3 4 3 4 5 5 3 3 4 6 6 6 6 6 6 6 6 6 6 6 7 7 8 8 8 9 11 12 13 13 12 11 10 8
14 13 11 8 6 4 4 5 5 5 4 2 1 1 2 2 1 1 2 2 2 2 2 2 2 2 2 2 2 3 4 5 5 5 6 6 7 7 8 8 9 10 12 13 14 13 12 10 8
14 13 13 12 11 9 8 7 7 6 4 3 3 4 5 6 6 5 5 5 4 5 5 4 3 3 4 3 3 2 2 2 3 4 4 6 7 8 9 9 10 11 12 13 15 15 14 11 8
11 12 13 14 14 12 10 10 9 9 6 3 4 6 7 8 8 9 8 8 8 7 7 7 7 7 7 6 6 5 3 3 2 3 5 6 7 9 9 10 10 11 12 13 15 16 16 13 10
11 12 14 16 16 13 12 12 10 9 8 6 5 6 7 8 9 10 10 10 9 9 9 8 8 9 9 8 7 7 6 6 6 6 8 10 11 10 10 10 9 11 12 13 15 16 16 15 13
13 13 15 18 18 16 14 13 12 11 9 7 8 8 8 9 9 10 11 11 11 11 11 10 9 10 10 10 9 9 9 10 10 11 12 13 13 12 10 9 9 9 12 14 15 15 16 16 15
16 16 18 21 21 20 18 15 13 11 10 9 9 8 9 11 11 11 12 12 13 12 12 12 11 11 12 12 12 12 13 14 14 15 15 14 13 11 11 10 9 9 11 13 15 16 15 16 15
21 20 22 24 25 24 22 20 16 14 13 13 10 8 9 11 12 12 12 13 13 13 14 13 13 14 14 15 15 15 15 15 15 15 14 13 11 10 9 9 9 9 11 13 16 17 17 17 17
26 24 26 29 29 27 26 23 21 18 17 15 13 11 12 13 13 13 13 14 15 15 16 15 15 16 17 17 17 17 16 15 15 14 13 13 12 11 10 10 10 10 11 14 16 18 19 19 19
30 30 31 32 32 29 29 27 25 23 22 20 18 17 16 16 17 17 17 17 17 18 18 18 18 19 20 20 21 20 20 19 17 15 14 14 14 13 13 12 12 12 13 15 18 20 21 22 22
33 33 32 32 33 33 32 31 30 29 27 26 24 22 21 21 21 21 20 19 19 20 21 22 23 24 25 25 25 25 24 23 21 20 18 17 16 15 15 14 15 15 16 18 19 21 22 23 24
36 34 33 33 35 36 36 35 33 33 31 30 29 28 26 25 24 23 22 21 21 23 24 25 27 29 30 30 30 30 29 27 26 24 23 21 19 18 17 17 18 19 20 21 22 23 24 25 25
38 37 36 35 36 39 41 40 38 37 35 35 34 32 31 28 26 25 24 24 25 26 27 28 30 32 33 34 34 33 33 32 31 30 27 25 23 21 20 20 21 22 23 25 25 26 26 27 28
37 38 38 37 39 40 43 44 42 41 40 39 38 37 36 33 30 28 27 27 27 28 29 30 31 33 36 38 38 37 37 37 36 35 33 30 27 25 24 23 24 25 26 28 29 29 30 30 30
35 37 39 39 40 42 43 45 45 44 44 43 42 41 40 37 33 31 30 30 30 30 30 31 33 35 38 40 41 41 42 42 42 41 38 35 32 29 27 26 27 28 29 31 33 34 34 34 34
28 31 33 35 38 40 41 42 43 43 43 42 42 41 39 36 34 34 33 32 32 31 32 33 35 36 38 40 43 45 45 47 45 45 43 39 35 32 31 29 29 31 32 34 36 37 37 37 38
24 25 26 27 30 33 35 36 37 39 40 39 39 38 36 36 36 36 36 36 36 35 35 36 37 39 41 43 45 47 47 47 48 50 46 41 37 35 33 30 30 32 34 35 37 39 39 38 39
25 26 27 27 27 28 29 31 33 35 36 36 36 35 35 36 37 38 38 37 37 37 37 38 39 41 43 45 46 47 48 45 46 46 42 37 34 33 30 30 31 33 34 35 37 39 39 38 38
26 27 28 28 28 29 30 33 33 35 36 37 37 36 36 36 38 39 42 41 39 39 40 42 43 43 44 46 47 48 47 46 42 40 36 33 31 30 29 30 31 33 34 35 37 39 40 40 40
27 28 29 30 30 30 31 35 36 36 38 39 41 41 41 41 42 43 45 46 46 46 47 47 49 50 50 50 49 47 44 41 39 35 33 31 29 29 29 31 33 34 35 36 38 39 41 41 41
25 27 28 29 29 29 29 32 34 34 37 41 45 47 47 49 50 51 51 52 53 54 54 55 55 55 54 53 51 45 40 37 34 31 29 28 29 30 32 33 35 36 37 38 40 41 41 41 39
22 24 25 25 25 24 24 26 26 26 29 34 40 45 49 52 55 57 59 59 60 60 60 60 60 58 57 54 50 45 40 37 33 30 28 29 31 33 35 37 38 39 40 40 40 39 38 37 35
20 21 23 24 22 19 18 20 20 22 25 28 31 36 40 45 49 53 56 58 59 60 60 60 59 57 55 50 46 43 40 36 34 31 30 32 33 35 38 39 41 41 40 38 36 34 33 31 29
18 18 19 20 18 17 15 16 18 22 25 27 29 32 35 39 43 48 52 54 56 57 57 57 56 55 52 48 43 41 40 37 36 34 34 34 35 37 38 38 38 37 35 33 31 29 28 27 25
14 14 15 18 20 20 18 17 22 24 26 28 31 33 35 38 42 45 49 52 54 55 56 55 54 52 49 46 42 40 38 38 38 37 36 36 36 37 37 35 33 31 30 29 28 27 26 25 24
15 17 18 20 22 25 24 20 25 27 29 31 34 36 38 40 42 44 47 49 50 49 50 50 48 45 41 38 38 37 35 35 36 37 37 37 37 36 34 33 32 31 30 29 28 27 26 25 25
18 19 20 22 24 26 29 26 28 30 32 34 36 38 40 42 43 44 45 45 44 42 40 40 40 38 36 34 33 33 32 32 33 34 34 34 34 34 33 33 32 31 30 29 29 28 27 26 25
Wind_Direction
177 168 159 147 124 80 63 58 81 99 101 98 95 92 93 93 93 96 96 96 95 94 95 92 87 86 86 86 85 84 82 78 76 73 69 63 55 48 41 35 31 30 30 30 29 29 31 37 45
191 183 174 157 140 93 71 53 56 76 92 99 103 101 99 98 94 96 91 93 93 90 87 83 81 80 81 83 82 80 78 75 72 70 65 58 52 45 39 32 26 23 22 21 22 23 25 27 33
203 201 192 169 137 105 99 93 62 56 60 74 94 99 95 93 92 89 86 85 84 83 79 77 79 80 80 82 83 82 79 75 71 66 57 50 45 40 34 26 20 15 12 11 10 11 15 19 22
215 219 219 202 166 152 204 204 182 137 77 51 59 79 76 78 80 72 69 68 65 62 49 63 74 78 80 84 86 84 80 74 68 60 51 42 35 29 23 17 12 7 4 1 358 357 0 4 10
220 228 235 232 219 209 224 218 203 197 197 192 241 253 262 268 285 322 353 21 16 337 322 1 51 59 49 54 63 72 72 66 60 53 45 34 25 16 9 4 1 358 356 355 352 348 346 348 355
225 236 243 244 235 224 229 241 241 228 201 207 241 250 250 254 260 268 277 281 281 283 285 286 287 291 301 309 319 338 20 39 36 32 27 20 10 359 353 348 348 349 350 350 349 347 342 337 337
231 242 248 250 246 234 233 246 262 267 249 246 255 259 255 256 260 265 269 270 271 275 278 278 278 282 288 295 303 307 311 319 328 339 347 348 346 340 336 335 339 344 347 348 346 347 345 339 330
233 243 248 252 254 247 239 244 259 278 272 267 262 264 261 259 263 269 271 269 270 273 276 276 278 282 285 288 294 297 298 298 296 301 312 318 319 319 320 326 336 347 352 352 348 347 347 343 334
237 246 251 256 260 260 255 255 266 280 287 280 272 269 270 272 272 275 276 275 273 273 274 275 275 279 281 281 283 288 291 292 292 293 299 304 305 304 303 311 326 343 350 351 351 348 347 344 337
238 249 252 257 263 266 267 270 277 288 296 295 287 277 274 276 278 280 280 280 278 275 275 274 274 276 277 276 277 283 287 289 290 290 293 296 295 292 292 299 312 329 342 346 348 347 344 340 334
234 245 253 257 260 265 271 276 284 292 300 305 300 286 279 281 281 284 285 284 280 276 275 274 274 275 276 275 277 282 287 290 290 288 289 289 288 285 288 294 304 319 331 338 343 344 342 337 331
232 239 245 249 255 263 271 278 284 287 288 294 299 291 283 285 283 284 287 287 281 279 278 276 275 275 275 276 277 280 283 285 286 284 283 281 277 276 282 289 297 309 318 327 334 339 338 334 328
232 236 241 247 256 263 270 276 280 282 281 282 286 288 285 285 287 287 286 285 281 279 279 280 278 277 277 278 280 280 279 281 280 278 277 276 274 272 275 280 287 293 302 313 323 330 333 331 327
235 238 244 249 255 260 264 269 273 274 276 278 279 280 283 285 287 287 284 279 276 275 278 280 281 280 279 279 280 281 279 279 278 276 275 274 274 273 273 277 284 291 298 306 313 318 323 325 323
240 240 244 245 249 254 259 261 264 266 270 273 275 276 278 280 282 281 278 276 273 273 276 279 280 280 280 279 279 281 279 278 278 278 278 277 277 280 282 285 290 295 299 302 306 309 313 316 316
241 239 239 240 242 247 254 257 259 262 264 268 270 272 273 273 273 272 271 269 269 270 273 275 276 277 277 277 278 280 279 277 278 278 279 279 279 281 284 288 291 294 296 298 300 303 306 308 308
237 238 237 237 240 242 248 254 256 258 262 264 266 268 269 269 269 266 263 263 264 266 269 273 274 274 274 274 275 277 277 277 276 276 277 276 276 277 280 285 289 292 292 294 296 298 300 301 301
238 238 238 237 240 243 246 251 254 256 259 262 265 266 268 268 266 263 261 262 262 263 266 269 273 274 272 271 273 275 275 274 273 271 272 272 272 273 276 281 287 290 291 292 294 295 297 298 297
248 248 246 245 245 248 250 253 256 259 260 262 263 264 264 264 261 261 261 260 260 259 260 264 270 273 273 273 272 274 273 270 268 267 266 268 268 270 272 276 282 287 289 290 291 293 295 296 295
261 260 258 256 254 255 256 257 259 261 262 262 262 261 260 259 259 260 262 260 258 258 259 263 268 272 272 271 270 271 271 269 268 266 264 263 266 268 271 274 280 283 285 287 289 291 293 294 294
262 263 263 263 262 261 262 261 262 264 264 265 265 264 263 263 263 265 265 262 261 260 262 265 270 273 273 272 269 269 270 270 270 265 265 265 270 272 275 279 281 282 283 285 287 290 292 293 293
263 265 267 268 266 264 265 262 260 262 265 267 267 267 266 265 265 264 265 267 268 271 273 276 275 276 275 274 271 268 265 266 267 265 266 269 275 279 280 280 280 280 281 284 287 290 292 292 293
264 266 268 270 270 268 264 263 261 259 260 264 266 268 268 268 267 267 268 271 273 275 276 278 279 279 279 277 273 271 265 263 265 265 267 271 277 280 279 278 279 281 283 286 289 291 293 294 294
265 267 269 272 273 272 269 267 265 263 261 261 262 265 268 269 270 270 270 271 273 274 276 277 278 278 278 277 276 275 268 263 260 261 266 270 275 277 278 278 280 282 285 287 290 291 293 293 294
268 272 274 275 276 279 280 278 279 278 272 269 267 267 269 270 271 272 272 272 272 273 274 275 276 275 276 277 277 274 268 260 257 260 265 270 273 276 278 279 281 282 284 286 288 290 291 292 293
277 279 280 282 283 282 282 287 291 288 283 281 280 279 278 277 276 275 275 274 274 274 274 273 274 275 275 276 275 274 271 260 255 258 263 268 272 277 279 280 281 281 283 285 288 290 291 291 291
285 285 287 288 291 292 292 294 295 291 291 293 294 293 290 287 284 282 279 278 276 275 274 273 273 274 275 275 274 273 268 261 258 259 262 267 272 277 281 281 281 281 283 285 287 288 288 288 288
295 298 297 297 299 299 297 300 299 297 301 305 308 307 303 300 295 290 285 282 279 276 274 274 272 271 272 273 270 267 264 262 258 258 260 265 271 276 279 280 280 280 281 283 284 284 284 283 283
293 295 296 297 300 302 302 307 302 304 309 312 314 314 312 309 304 299 293 288 284 280 276 272 271 268 267 265 262 261 261 259 259 259 262 266 270 274 276 277 278 279 280 281 280 279 279 279 278
289 291 292 295 297 299 302 308 306 307 311 315 317 317 317 315 312 306 300 294 287 281 276 270 265 261 259 258 257 256 253 253 256 259 262 264 267 270 273 275 276 277 278 277 276 276 275 275 276